Wind_Speed
23 24 24 23 23 23 23 23 22 22 22 21 21 21 20 20 19 18 18 17 16 16 15 15 15 16 17 16 15 14 13 13 14 17 15 11 14 18 19 20 23 25 26 24 23 22 19 17 13 11 11 9 7 6 9 9 3 1 1 3 3 5 2 8 9 10 11 11 14 14 15 16 15 15 10 9 6 2 7 8 7 8 7 6 9 14 16 16
22 23 23 24 24 24 24 24 23 23 22 21 21 21 20 20 19 19 18 18 17 16 16 15 15 16 16 16 15 14 13 13 12 13 13 12 14 15 16 20 23 26 27 26 25 22 20 17 13 13 12 11 8 7 12 12 6 5 3 3 3 2 7 9 5 10 11 7 13 18 16 13 11 13 12 10 7 7 8 8 11 10 8 8 11 16 16 15
20 21 22 23 23 24 24 24 24 23 23 22 21 21 21 20 20 19 19 18 18 17 16 15 15 16 16 15 15 15 13 13 12 11 11 11 14 12 12 18 22 24 25 25 23 20 17 11 11 13 12 13 11 9 14 16 11 7 8 7 6 6 8 11 8 10 11 7 13 19 16 12 12 13 10 10 7 7 8 7 9 7 6 10 14 17 16 16
19 20 21 21 22 23 23 24 24 24 23 23 22 22 21 21 20 20 20 19 19 18 17 16 16 16 16 14 14 14 14 14 11 9 9 9 11 10 10 15 19 21 23 23 22 20 17 14 14 14 13 14 12 12 17 19 14 8 9 8 7 5 4 8 10 12 11 9 16 18 16 12 13 13 10 11 11 10 9 4 0 1 2 9 15 17 16 16
19 19 20 20 21 21 22 23 23 23 23 23 23 22 22 22 21 21 21 20 20 20 18 17 16 17 17 15 14 14 14 13 7 4 4 3 5 7 9 13 16 17 20 23 24 22 21 20 18 16 16 15 14 16 19 20 17 12 10 6 4 5 4 4 7 12 11 12 20 16 14 15 13 13 11 13 15 13 7 5 2 3 2 5 12 15 17 17
19 19 19 19 20 20 20 21 22 22 22 22 23 22 23 22 22 22 21 21 21 21 20 18 18 18 17 16 14 14 14 12 5 3 3 2 3 3 6 11 15 18 21 23 24 24 24 24 23 21 19 16 16 19 17 17 16 15 11 8 10 10 8 6 4 12 15 15 17 13 16 17 12 13 12 15 18 15 11 7 4 1 1 3 8 13 17 18
20 20 19 19 19 19 19 20 20 21 21 21 22 22 23 22 22 22 22 22 22 22 22 19 19 19 18 17 15 15 13 9 8 9 7 5 5 6 7 10 15 20 24 25 26 26 25 27 26 24 21 19 19 20 16 15 17 19 18 15 13 13 13 8 6 13 18 14 8 11 22 19 13 13 13 17 18 16 16 10 6 6 4 3 6 11 16 18
22 21 21 20 19 19 19 19 19 19 20 20 20 21 21 22 23 23 23 23 23 24 23 21 21 20 19 19 17 15 11 7 9 9 5 6 8 9 10 12 17 21 24 26 26 26 26 28 28 25 25 23 20 20 16 13 20 24 24 20 15 15 16 12 12 13 15 14 7 11 21 18 14 12 12 19 20 17 17 13 11 11 7 3 5 10 17 18
22 22 22 22 21 20 19 19 19 19 19 19 19 20 20 21 22 22 23 23 23 25 24 22 22 22 21 20 20 13 6 6 8 6 5 7 8 9 10 13 16 20 23 25 26 27 28 29 27 25 25 22 20 20 17 16 24 25 23 20 17 16 17 17 18 15 15 17 15 14 16 12 11 10 12 19 21 19 19 17 15 13 8 5 7 10 16 19
22 23 23 23 22 21 21 20 20 19 19 18 19 19 19 20 20 21 22 22 24 25 25 23 23 24 22 21 21 12 5 6 8 8 8 8 8 7 7 9 12 17 21 24 28 29 29 27 23 21 21 20 21 21 19 22 26 24 22 20 20 20 18 20 20 18 18 18 16 16 15 12 11 12 17 19 19 19 19 19 17 13 8 5 8 11 15 19
23 23 23 23 23 22 22 21 21 20 20 19 19 19 19 20 20 20 20 21 23 25 25 24 24 25 23 23 23 13 9 10 11 13 12 11 11 8 6 4 5 13 19 23 28 29 28 25 20 21 22 21 21 21 22 25 24 24 23 22 23 24 21 21 21 18 24 24 17 15 15 15 15 15 17 18 17 16 17 20 17 12 8 5 10 12 15 19
23 23 23 23 23 23 23 22 22 21 20 20 19 19 20 20 20 20 19 19 21 24 24 24 25 25 25 25 16 7 10 12 12 16 16 13 11 10 7 4 1 8 17 22 26 27 26 23 24 27 26 22 22 21 23 25 25 26 24 25 24 24 24 22 24 20 27 32 21 17 18 18 19 20 19 16 17 15 17 20 15 11 8 6 10 14 17 19
23 24 24 23 23 23 24 23 22 21 20 20 20 20 20 20 21 20 20 19 21 23 22 23 25 25 27 19 6 10 11 11 13 17 17 14 11 10 9 8 4 3 12 21 23 25 24 24 28 29 24 23 26 24 22 23 24 24 22 24 22 21 21 21 22 20 27 31 23 23 23 20 19 22 19 16 18 19 21 20 15 12 9 7 10 16 18 20
24 24 24 24 24 23 24 24 24 22 21 21 21 20 20 20 21 21 21 20 21 22 21 23 23 25 24 8 11 13 14 17 20 19 16 13 11 9 10 12 8 3 9 19 23 24 24 25 28 27 24 25 26 25 25 25 24 22 20 21 19 19 22 24 22 20 25 28 26 30 27 19 18 21 19 18 22 23 23 20 16 13 10 9 11 15 19 20
25 24 24 25 25 24 25 25 25 23 22 22 22 22 22 22 22 21 22 21 21 21 21 23 22 25 21 5 10 16 19 21 19 14 15 14 10 9 11 12 10 5 8 17 24 24 25 27 27 27 27 27 25 25 26 27 27 24 22 22 20 19 21 25 25 23 24 26 29 32 28 20 21 23 19 20 25 26 23 20 17 15 12 11 11 14 19 20
25 25 25 24 25 25 25 25 25 24 22 23 23 22 23 24 23 22 23 22 22 21 21 23 22 23 19 6 9 17 19 18 14 13 17 17 13 10 9 9 9 7 8 15 24 28 29 30 29 28 28 28 28 28 26 26 28 27 23 25 24 20 19 21 24 23 24 28 33 33 27 22 25 26 22 22 27 26 24 22 19 17 14 14 12 12 19 21
26 26 25 25 24 25 25 25 26 24 23 24 24 23 25 26 25 24 24 23 23 22 22 23 22 23 19 10 11 12 10 12 12 14 18 18 15 12 13 14 13 12 12 14 23 31 32 30 29 30 31 31 31 30 26 27 29 29 25 25 25 21 18 19 20 19 24 32 36 35 30 24 27 27 24 25 28 27 26 24 21 19 17 17 14 11 18 21
27 27 26 26 25 25 26 25 25 24 23 25 25 24 25 27 27 26 26 26 25 24 24 23 23 23 17 10 11 11 11 13 14 14 16 17 15 15 19 21 17 15 16 16 21 31 33 32 30 29 32 34 34 32 30 30 32 29 26 26 24 21 20 21 19 15 23 36 38 35 30 24 27 29 26 27 29 29 28 25 21 20 20 20 17 12 16 20
28 27 27 27 26 26 26 26 25 24 23 24 26 26 25 27 27 27 28 28 27 25 24 22 22 22 15 10 8 9 15 17 17 18 17 16 16 18 22 24 21 18 21 21 22 29 34 33 31 33 35 36 37 37 35 33 32 29 27 27 25 23 22 19 17 17 21 34 37 36 34 27 28 31 29 30 30 29 27 24 22 21 21 22 20 15 14 19
29 28 27 26 26 26 27 27 26 25 24 24 25 26 27 28 28 30 31 30 29 28 26 25 25 23 19 14 9 10 15 17 17 17 16 14 15 18 22 25 25 23 26 27 24 26 33 35 37 39 38 35 36 36 34 32 32 30 28 28 27 26 23 19 16 17 21 31 35 37 35 29 30 31 31 31 31 29 26 24 24 24 24 23 22 18 14 16
29 29 27 25 25 25 27 28 27 26 26 25 25 25 26 29 29 32 34 32 27 28 29 26 27 27 20 14 14 16 16 18 19 17 16 15 14 18 22 25 28 28 28 25 22 23 29 38 43 41 38 33 31 32 32 32 33 33 31 30 30 28 27 24 19 15 21 33 35 37 35 29 31 32 32 33 32 30 28 27 28 27 26 24 23 22 16 12
29 28 28 25 24 23 25 26 27 27 26 27 26 25 25 27 28 30 34 33 25 23 26 24 26 28 20 12 14 20 23 23 22 18 18 18 18 20 22 25 29 30 27 22 23 25 30 40 43 39 37 34 30 27 28 31 33 35 34 33 33 31 28 27 24 16 20 32 36 37 36 31 31 31 33 34 31 29 28 30 30 28 26 25 24 23 19 14
29 29 28 26 24 22 23 25 25 26 27 27 26 25 25 25 26 28 32 36 30 22 23 23 25 27 23 16 14 23 30 28 24 22 21 23 24 22 22 26 28 28 29 28 28 31 33 36 37 37 36 34 33 29 26 27 32 37 39 37 37 36 29 27 24 17 19 31 38 38 36 33 32 33 35 31 26 27 28 30 31 28 27 26 23 22 19 18
29 29 29 27 24 21 22 24 24 25 27 27 26 24 23 22 26 29 30 35 36 27 21 20 24 26 21 17 18 25 28 27 26 26 25 26 27 26 24 25 26 29 32 32 31 33 35 30 26 31 34 34 35 33 29 28 31 37 41 42 42 40 34 29 24 18 19 24 32 34 33 32 36 35 35 32 26 28 30 30 32 30 29 27 24 23 21 19
28 29 30 28 26 21 19 22 23 24 26 26 25 23 22 22 25 29 29 31 36 32 23 22 25 23 19 20 23 24 24 28 29 28 29 28 27 29 28 24 27 30 31 32 32 33 36 30 22 23 28 32 35 35 35 32 32 35 39 44 45 41 37 33 29 23 16 17 24 29 23 22 38 39 33 33 31 32 34 33 35 33 31 30 29 28 25 22
27 28 29 29 27 22 17 20 22 23 24 24 24 22 21 22 23 26 27 27 33 32 22 18 17 16 19 24 25 23 25 28 27 29 32 30 28 29 29 28 29 30 29 28 31 34 35 31 27 24 23 27 33 36 36 34 35 38 38 40 43 44 40 35 34 27 14 14 21 30 25 16 33 42 35 34 33 33 36 36 37 36 33 33 33 31 28 26
28 27 28 28 28 25 18 17 20 22 23 22 24 21 20 22 20 22 21 17 21 22 14 10 8 9 13 17 23 27 24 19 22 33 37 32 31 31 30 32 31 29 27 24 29 36 32 29 30 30 28 28 34 36 34 35 37 40 37 33 35 42 42 38 37 33 26 23 23 30 36 22 28 42 39 36 34 33 36 37 37 37 36 35 34 32 31 29
29 29 28 27 28 28 21 17 19 20 21 22 22 20 19 19 18 16 10 4 7 9 7 6 6 9 11 13 21 27 22 14 15 26 35 34 33 33 34 35 33 30 28 28 32 34 29 29 31 32 34 34 37 36 30 32 38 40 35 30 32 34 36 39 38 37 36 29 25 29 32 19 19 38 41 38 39 36 36 38 38 39 39 37 36 34 33 31
31 30 30 27 26 28 24 21 22 18 18 21 20 20 19 18 16 10 3 2 6 7 7 7 8 10 11 13 16 21 23 20 11 11 27 39 36 35 36 34 32 30 29 31 35 32 26 27 26 28 35 38 38 34 30 32 36 37 34 30 31 30 31 34 33 38 37 24 25 34 31 17 12 31 45 43 43 41 37 37 37 38 38 38 39 37 35 33
32 31 32 29 26 25 22 23 26 19 16 19 19 19 18 17 15 9 5 7 8 6 6 8 10 12 12 14 15 18 24 25 16 8 23 39 37 36 37 32 30 31 30 30 33 33 29 25 23 26 32 34 35 33 32 33 30 31 33 31 31 31 33 34 33 38 29 15 25 37 36 27 13 22 44 46 42 40 37 37 37 38 38 38 39 39 38 36
34 32 32 32 28 25 20 19 25 23 17 17 18 17 17 16 15 10 5 11 12 8 7 6 10 14 15 15 15 17 21 25 22 15 23 38 39 39 38 31 31 32 31 33 34 33 31 27 27 29 29 28 31 33 33 33 31 30 32 31 29 29 32 33 33 31 16 9 27 37 35 34 22 23 38 42 41 38 35 35 35 36 39 39 39 40 40 38
35 33 31 32 31 27 22 19 22 23 20 17 16 17 17 15 18 19 12 8 8 8 10 8 8 12 15 18 19 18 19 23 25 22 25 36 42 45 43 39 39 35 33 39 38 34 35 35 31 29 30 29 29 32 33 33 34 36 38 35 26 17 17 19 18 15 9 11 27 33 30 31 33 37 39 38 41 39 35 35 32 33 37 39 40 40 40 39
36 34 30 30 30 28 25 22 21 22 20 17 15 17 19 13 13 23 24 16 6 5 10 11 13 13 11 18 23 21 21 21 24 26 25 29 40 48 46 44 44 37 34 37 38 34 31 34 35 33 33 33 32 35 36 36 37 41 44 41 26 11 6 9 8 5 7 14 24 30 26 20 29 41 40 35 35 35 36 36 33 33 35 36 37 38 40 40
35 33 30 28 28 29 26 23 22 22 19 17 17 18 22 18 11 13 18 21 18 13 16 19 19 18 15 16 20 23 25 22 22 29 29 27 36 47 49 47 45 40 35 30 32 35 27 25 35 39 37 37 37 38 36 34 36 40 43 43 36 23 11 6 5 3 5 7 14 23 20 12 16 27 31 31 31 31 35 37 35 34 34 33 35 38 40 40
35 32 29 26 27 29 26 22 23 23 19 18 20 23 28 27 16 8 7 12 18 24 32 31 26 24 23 20 17 18 25 25 22 27 32 32 36 43 47 48 48 44 38 29 28 35 33 31 36 37 37 40 40 39 35 32 34 36 40 43 42 39 28 13 7 11 11 5 8 18 19 16 20 25 25 26 29 30 32 35 37 37 35 34 35 38 38 39
37 32 26 24 25 27 25 21 22 23 21 20 23 31 37 32 21 14 11 12 12 18 27 27 23 21 22 22 19 14 18 26 28 28 33 37 38 40 41 42 45 46 45 38 30 29 30 35 38 33 32 37 40 39 37 34 32 32 38 46 43 41 41 27 13 13 14 8 11 20 19 18 22 24 26 27 28 28 29 36 41 38 35 34 35 35 35 36
39 33 24 22 24 24 23 22 20 21 22 22 28 35 37 34 29 23 19 18 13 12 17 19 16 13 12 13 16 12 6 16 28 33 36 36 36 40 43 41 41 44 46 43 36 30 25 28 35 33 32 36 38 39 39 37 34 31 36 44 40 32 34 31 14 6 9 6 8 19 23 21 18 18 22 27 29 29 28 32 38 38 36 34 32 33 34 34
39 33 25 22 22 21 23 22 20 21 22 25 33 36 34 34 35 30 25 22 19 18 19 20 17 14 12 11 15 14 7 8 16 23 29 34 35 38 41 42 42 43 44 43 40 35 28 24 28 29 30 32 33 35 38 39 37 35 34 35 34 26 24 28 17 7 9 6 4 13 21 25 28 27 25 25 27 31 30 28 32 37 37 33 31 31 32 33
38 32 23 19 19 20 23 24 21 22 24 29 35 34 32 33 32 31 30 29 28 27 23 17 14 14 14 15 20 22 17 15 13 13 17 23 30 36 37 38 41 42 41 43 44 39 32 25 25 27 25 25 31 37 41 43 40 38 36 33 35 33 29 32 27 14 8 5 5 8 10 19 32 35 33 33 30 29 28 28 30 34 35 34 31 30 31 34
34 30 18 14 19 22 24 24 23 24 28 32 33 30 29 28 27 27 28 29 32 31 25 19 17 20 24 24 25 26 25 23 21 20 18 16 19 27 31 33 38 41 39 40 45 45 40 31 27 28 27 28 35 40 44 47 44 43 44 39 37 36 30 30 34 30 18 5 3 4 5 19 34 34 32 35 32 28 27 28 30 32 34 35 32 29 29 32
29 27 15 10 20 24 23 24 24 26 28 28 27 26 25 23 23 23 21 22 26 29 28 26 23 24 27 29 29 29 30 30 27 25 24 20 15 14 18 24 31 37 37 39 43 44 44 41 34 33 34 35 38 38 41 47 46 45 47 46 42 37 28 19 18 28 29 17 9 8 8 22 35 34 32 32 29 29 31 31 32 33 35 37 35 32 28 27
27 26 13 10 22 24 21 24 26 25 25 24 22 22 22 20 17 15 12 12 17 22 24 24 25 23 21 25 29 26 26 31 29 26 26 22 18 16 16 16 21 27 33 41 47 45 42 43 41 39 41 40 37 33 32 38 45 46 46 47 46 42 35 22 10 14 24 24 21 15 14 27 35 30 28 30 28 27 29 31 30 29 32 37 37 35 30 25
27 25 10 12 21 22 21 25 27 28 27 26 24 23 23 19 15 14 15 16 19 21 20 18 20 19 17 22 26 22 22 26 25 23 26 26 25 26 25 22 20 22 24 27 35 42 44 43 40 38 42 44 42 39 33 32 40 49 49 46 46 47 46 37 25 19 20 23 22 13 12 28 35 28 26 28 29 29 27 27 26 25 29 35 38 38 34 28
27 22 6 8 13 13 14 16 18 23 27 26 25 24 24 21 17 18 20 21 20 19 18 17 16 16 15 18 21 19 19 20 18 20 25 28 31 30 26 26 24 18 15 10 10 22 37 45 40 26 21 28 34 35 35 35 37 44 50 50 49 51 51 45 37 28 22 23 25 16 10 19 30 33 33 32 32 33 30 27 25 23 27 33 37 39 38 33
26 22 9 7 8 8 7 4 6 12 16 18 20 20 20 21 20 18 17 17 16 14 16 18 16 16 17 19 20 20 20 19 18 20 24 29 32 30 26 27 26 20 16 12 9 12 21 36 44 32 14 13 18 22 31 38 39 40 46 51 52 52 50 47 40 31 23 22 27 25 16 18 30 36 35 33 33 34 35 34 28 20 23 34 42 41 38 35
24 22 17 12 9 7 9 7 5 7 8 11 14 15 17 20 22 22 19 18 18 17 19 21 19 19 22 24 25 25 26 25 22 22 26 32 34 32 29 27 24 22 20 17 15 17 17 22 39 48 42 34 32 34 37 36 35 39 42 44 50 53 53 49 42 36 31 25 30 37 26 17 27 34 30 27 27 29 31 32 31 23 21 31 45 45 37 33
21 20 20 19 12 5 10 11 8 7 7 10 13 12 13 15 18 23 26 23 22 24 25 26 25 24 26 28 29 29 31 32 30 27 30 35 38 38 37 32 26 26 25 20 16 18 20 21 27 41 52 56 50 44 43 37 31 34 39 41 45 50 53 52 47 44 39 26 29 44 39 25 25 27 25 24 23 25 25 23 28 31 24 24 33 40 38 35
20 19 18 18 15 12 10 10 11 12 12 14 15 13 13 13 13 15 20 22 23 23 21 23 24 23 26 28 28 29 32 36 37 35 34 36 39 42 44 40 33 29 28 24 16 11 17 23 23 23 34 53 57 48 45 44 36 30 34 42 45 47 53 54 51 49 45 37 36 43 44 40 35 27 24 27 27 28 29 26 26 28 26 22 25 34 38 36
19 19 17 15 17 19 18 16 16 18 17 16 17 15 15 14 12 12 15 18 22 21 15 15 18 18 22 25 27 28 30 33 37 38 37 37 38 39 42 42 38 30 23 20 13 6 13 18 17 16 22 38 55 55 48 47 45 35 33 40 43 46 52 54 51 48 46 47 46 42 40 43 40 31 27 29 29 29 31 32 28 23 23 25 29 35 37 36
17 17 18 18 18 19 18 17 18 18 18 17 17 15 13 13 13 13 14 15 19 20 16 14 15 16 19 22 24 27 28 29 34 38 39 39 38 36 37 39 38 33 23 16 8 4 12 15 12 17 20 24 43 58 54 47 49 44 36 37 39 42 47 50 50 50 47 47 45 41 41 43 40 36 33 30 29 27 24 25 23 18 18 22 29 34 34 32
15 16 16 19 21 19 17 16 17 19 19 16 15 14 12 12 13 14 15 14 14 17 18 17 17 18 19 21 24 26 26 27 32 36 37 39 40 39 38 38 36 34 28 18 9 7 13 16 15 21 24 18 29 48 56 53 49 45 42 41 39 39 43 46 47 46 46 46 44 42 43 41 35 36 39 37 35 33 29 26 23 19 18 19 24 28 29 28
14 15 14 17 21 19 17 17 16 18 18 15 14 13 13 14 12 12 16 16 12 12 16 18 19 18 19 24 26 25 24 25 31 36 36 37 40 41 41 39 34 31 28 22 16 11 14 20 21 23 24 18 15 28 52 54 37 36 46 48 40 35 37 42 46 46 43 41 41 40 40 36 30 31 36 39 40 40 37 36 34 31 27 22 22 24 24 23
Wind_Direction
282 282 281 281 281 281 281 281 282 282 284 285 287 288 289 291 293 296 298 298 299 300 301 299 297 295 292 294 294 292 288 282 277 273 261 245 244 239 236 227 216 213 210 211 218 224 228 232 234 229 238 239 240 252 220 200 166 190 325 359 348 350 51 124 124 141 131 138 163 165 176 182 173 179 187 186 200 203 173 178 185 182 175 183 192 181 166 164
284 282 281 280 279 279 279 278 278 278 279 280 281 283 283 285 287 289 291 293 295 295 297 298 298 296 294 296 296 295 293 289 284 276 261 241 244 245 239 226 213 211 210 212 218 225 231 236 235 231 237 232 223 225 210 200 205 220 243 258 182 160 171 161 141 151 146 137 167 176 186 196 198 189 190 205 202 185 194 199 207 207 192 191 189 183 175 171
291 288 286 283 281 279 279 278 277 277 276 277 278 279 279 280 281 283 285 287 289 290 293 294 295 295 295 298 298 299 295 291 291 284 262 241 245 248 238 226 213 208 209 209 212 217 221 222 222 225 231 230 221 214 213 209 213 226 242 237 161 149 187 192 201 170 160 155 163 178 198 213 208 198 201 216 207 200 230 239 216 225 223 199 185 184 182 178
300 296 293 289 286 283 281 280 278 277 276 275 275 275 276 277 277 278 279 281 283 285 287 289 290 291 293 298 300 302 300 296 297 290 267 242 244 235 215 219 212 207 206 202 202 204 197 188 198 211 219 224 216 210 217 210 208 225 225 203 136 136 190 195 199 179 168 171 164 172 199 209 197 203 222 218 210 214 236 289 200 40 267 198 180 182 186 182
307 303 299 295 292 289 286 283 281 279 277 275 273 273 273 274 275 275 276 278 279 280 282 284 285 285 289 294 296 300 302 301 306 294 266 229 232 218 195 203 204 202 202 200 198 196 190 189 192 197 210 215 206 211 218 210 212 231 225 213 217 217 204 198 200 183 173 174 170 172 201 202 194 213 238 235 234 239 253 322 355 46 33 197 185 180 181 185
311 308 304 300 298 295 291 288 286 283 280 277 275 273 271 271 271 272 274 275 276 277 278 280 280 281 284 286 291 294 296 302 301 250 230 175 159 181 197 202 200 195 196 199 198 195 192 191 192 194 206 209 204 214 218 212 225 244 247 256 253 239 220 216 206 186 174 171 180 187 200 197 199 220 243 253 255 261 262 290 306 293 60 211 198 180 178 185
312 311 309 306 304 300 297 293 290 288 285 282 278 275 272 270 269 269 270 272 274 275 275 277 278 278 280 281 284 285 292 307 285 255 235 220 205 188 202 207 206 200 196 198 198 198 193 193 200 202 206 207 208 217 214 216 241 254 257 262 258 251 241 212 173 183 175 166 181 193 191 193 209 229 246 244 245 255 249 251 271 248 223 231 216 185 180 186
310 309 309 308 307 305 303 299 296 293 290 287 283 279 275 272 269 268 267 269 271 272 273 274 275 275 277 279 277 281 296 293 261 256 241 235 231 207 208 209 208 204 198 198 200 201 196 198 206 207 210 211 214 215 204 222 250 254 257 264 268 261 251 219 186 193 185 173 162 181 190 200 223 240 244 227 228 243 238 224 234 239 225 230 229 192 182 185
308 307 306 307 307 307 306 304 301 297 294 291 287 284 280 275 271 268 266 266 268 270 271 271 273 273 273 275 275 280 289 249 231 238 230 235 236 217 214 212 210 206 199 198 199 203 203 203 208 212 218 218 217 212 200 228 249 256 264 269 276 268 248 222 203 203 200 185 165 173 192 206 223 226 223 225 226 227 221 215 224 235 229 220 220 200 188 186
308 306 305 305 306 306 306 305 304 302 299 295 291 288 284 280 275 270 267 264 265 267 268 270 270 271 271 271 272 263 205 201 201 206 215 221 218 204 199 205 214 212 204 200 199 203 205 206 208 212 218 217 217 216 215 234 248 260 270 274 283 283 256 221 209 207 203 194 174 180 193 193 201 208 210 218 221 217 215 215 220 228 236 227 212 205 196 192
308 305 304 304 303 304 304 303 303 303 302 299 296 292 287 284 279 275 270 265 264 264 265 267 267 270 270 267 268 254 212 210 208 218 233 229 205 184 181 182 223 220 211 206 202 203 204 202 198 199 206 210 215 221 227 236 246 254 263 271 275 283 270 221 208 213 208 212 205 190 192 190 197 215 221 216 216 224 221 217 218 223 238 243 215 207 201 195
308 306 305 303 302 302 301 301 301 301 301 300 299 296 291 288 284 280 274 270 265 264 264 265 265 266 268 268 267 231 207 205 210 229 243 239 202 179 183 159 167 230 215 210 206 204 201 194 189 193 199 205 213 223 232 236 245 251 257 265 262 274 275 224 208 219 215 222 217 190 195 198 205 224 233 219 214 222 215 214 219 224 243 254 219 206 201 197
309 308 306 304 303 301 300 299 298 299 300 299 298 296 293 291 288 284 279 274 268 267 266 264 265 264 268 271 208 178 213 214 217 231 236 230 201 185 187 168 151 234 219 211 206 204 198 188 188 194 199 205 212 219 232 236 243 251 253 262 264 269 262 218 211 220 217 225 210 187 196 196 207 227 229 212 209 212 206 211 222 228 248 258 225 207 201 200
308 307 307 306 304 302 300 298 297 298 298 299 297 295 295 292 288 286 283 277 271 271 269 267 267 265 269 259 157 190 225 225 225 232 237 232 209 198 195 181 171 191 223 210 202 202 195 186 190 199 203 208 213 217 233 239 239 246 249 255 262 257 236 212 217 221 217 223 201 190 201 202 208 218 220 213 210 212 209 214 222 229 247 254 232 210 204 203
305 305 305 305 305 304 301 299 297 297 298 298 296 296 295 290 287 286 283 281 278 276 273 269 269 270 273 238 183 221 228 229 235 238 244 248 232 213 203 193 184 190 226 208 198 197 191 188 199 209 208 207 214 223 234 239 237 242 251 253 250 249 237 222 226 227 222 216 197 199 211 212 210 210 218 218 211 213 217 221 227 234 245 253 245 217 206 205
301 300 301 301 302 302 301 300 298 298 299 296 294 295 293 287 286 285 284 284 282 278 275 272 271 273 276 255 219 235 234 238 244 232 232 243 244 228 211 208 206 216 236 215 198 192 189 194 206 214 211 207 213 222 231 240 239 237 246 251 245 249 252 236 231 234 230 212 199 210 222 208 202 210 216 215 210 212 220 229 235 239 244 251 255 225 209 206
300 297 297 296 297 297 297 298 298 298 299 296 293 293 290 288 287 287 286 283 280 278 275 274 273 272 275 267 243 238 235 233 229 222 222 231 239 227 212 212 212 219 234 228 204 192 189 197 207 211 210 209 210 215 229 239 235 230 234 241 243 248 256 247 237 237 229 213 204 212 221 207 197 206 209 208 211 215 223 234 236 240 244 246 253 236 213 209
300 298 296 294 293 293 293 294 295 297 297 295 292 289 287 286 286 286 284 280 278 275 273 274 272 272 273 265 254 236 218 215 208 206 211 219 226 217 214 215 211 215 228 234 213 196 191 197 206 211 211 210 208 212 224 228 224 223 223 231 240 243 247 250 250 248 223 211 206 205 208 203 194 200 207 207 213 219 227 235 238 241 243 241 248 244 219 214
300 299 297 295 293 292 291 291 293 294 294 293 291 290 287 284 284 282 279 277 275 273 271 270 267 266 261 258 271 236 218 218 208 199 198 209 215 209 212 213 206 210 223 229 218 201 195 198 205 211 212 210 208 212 220 220 217 219 221 230 240 240 239 239 245 258 229 208 205 203 202 201 194 195 205 209 213 221 227 233 237 239 241 242 246 248 228 218
301 299 297 296 294 292 291 290 292 292 291 290 288 289 288 287 286 281 277 275 275 275 271 270 271 268 262 257 251 221 219 224 216 199 185 195 209 205 206 205 199 207 220 223 219 206 200 204 209 210 210 208 209 213 218 219 217 220 228 235 240 244 240 227 235 257 233 208 203 203 203 202 196 196 203 208 210 216 222 229 233 234 237 240 244 251 241 221
301 300 298 296 295 293 290 289 291 291 291 290 287 288 289 290 288 284 281 277 272 273 272 272 274 271 267 254 226 214 216 220 220 203 180 183 200 201 196 193 196 206 214 215 216 209 206 212 212 209 208 207 210 215 220 221 218 222 233 237 242 247 238 234 252 263 225 208 202 203 203 199 196 196 200 204 205 212 222 229 233 234 235 240 245 253 252 227
302 300 299 297 296 294 290 288 288 288 288 288 289 291 293 294 294 292 290 283 270 268 272 269 269 271 271 258 220 211 216 220 219 205 184 183 197 203 195 190 194 202 208 209 212 214 217 221 215 208 208 207 208 212 219 224 222 223 230 239 245 241 238 248 258 263 234 213 202 201 202 199 197 196 197 202 209 220 229 233 234 233 234 239 244 249 252 238
302 300 299 297 296 294 291 287 285 286 285 285 288 291 294 295 294 291 290 287 280 274 273 268 266 267 264 258 225 210 219 224 216 202 191 191 199 207 205 199 198 203 210 212 213 215 221 225 218 211 211 209 209 209 212 223 225 224 227 236 242 235 242 259 245 246 254 225 209 205 203 199 195 194 197 205 220 227 229 232 233 235 240 246 248 249 250 243
303 301 299 297 296 295 291 286 284 284 282 283 286 289 292 291 289 287 288 291 286 279 277 275 268 263 259 256 233 219 225 229 221 208 201 198 200 206 211 208 204 206 213 218 219 222 225 227 220 215 216 214 214 210 208 217 224 225 225 230 238 236 243 254 241 251 268 234 213 202 195 194 192 192 198 205 218 223 224 226 227 235 244 248 250 247 247 247
306 304 301 299 297 295 292 286 284 282 280 281 282 285 288 288 289 291 295 298 291 284 285 280 270 262 250 236 231 227 224 227 225 214 208 207 203 208 212 210 210 210 210 214 221 230 232 228 221 219 221 219 219 217 210 213 224 229 226 226 232 238 244 248 247 262 271 240 219 200 190 194 194 196 200 202 208 214 219 224 226 233 237 238 242 241 242 246
311 309 305 303 300 297 294 287 283 279 278 278 277 280 283 285 288 293 300 304 295 292 295 284 269 259 242 229 227 221 218 229 229 213 210 212 206 208 213 211 212 214 212 211 219 232 235 229 221 220 226 224 220 222 215 212 225 232 226 223 228 236 244 247 249 257 258 248 237 211 204 202 194 199 204 203 205 209 215 223 227 231 232 234 238 239 241 243
313 312 308 307 305 301 298 289 281 275 273 272 273 275 276 280 284 290 299 309 300 297 294 272 250 242 233 222 220 215 216 231 223 211 213 214 206 205 213 214 212 212 211 209 219 229 230 225 221 220 227 227 218 220 217 212 224 233 228 225 230 235 242 246 249 255 255 259 260 221 208 205 196 202 206 205 208 208 211 219 224 227 232 235 237 239 241 243
312 311 309 311 309 306 305 296 280 272 271 269 267 269 268 270 276 285 296 309 299 298 281 241 212 222 219 207 214 217 222 226 214 217 218 213 207 204 210 216 215 214 208 206 219 229 225 221 220 217 224 229 222 221 220 214 222 230 229 229 233 236 242 246 250 258 260 257 261 243 222 215 206 205 206 206 208 209 212 216 219 223 229 233 235 237 241 243
309 309 308 310 309 308 312 302 286 275 271 265 261 260 257 259 264 266 254 232 263 268 258 234 213 222 217 210 215 216 221 221 217 227 212 208 208 208 213 216 215 220 219 215 224 232 227 224 224 218 222 228 227 227 227 221 222 226 228 230 232 235 242 247 250 255 259 248 243 250 239 230 225 208 203 202 205 211 218 222 222 225 229 232 233 235 238 240
305 306 307 307 305 306 311 303 292 285 271 261 258 254 249 251 246 227 203 233 251 251 233 228 231 236 226 218 219 215 217 220 217 204 199 206 208 207 215 221 219 225 228 227 231 235 232 228 228 226 226 227 227 231 231 227 227 226 226 230 234 238 241 248 251 249 253 242 235 246 238 226 236 215 205 205 211 218 223 225 225 226 229 231 232 232 234 235
301 303 306 307 304 302 304 297 288 286 277 262 256 250 244 240 225 207 215 239 250 250 217 219 239 244 245 241 236 225 218 216 213 198 193 202 203 202 209 215 217 222 226 228 233 237 234 228 225 226 230 231 229 231 232 231 231 226 223 226 232 238 240 248 253 245 243 240 240 247 239 224 222 223 218 218 224 229 230 231 229 227 227 228 230 231 231 232
298 300 303 306 306 303 298 290 282 282 278 263 252 243 231 222 220 218 211 222 267 254 211 204 213 227 246 248 243 241 232 221 212 200 196 201 200 202 206 208 207 210 217 222 225 231 233 229 226 222 224 229 229 229 230 230 230 226 222 220 220 225 233 241 247 238 231 241 244 246 240 225 220 228 233 231 229 231 236 240 241 237 230 226 227 229 229 230
297 298 299 302 305 301 291 285 278 273 271 258 244 232 217 207 227 228 220 216 209 169 189 205 201 204 231 238 234 237 240 234 218 204 204 209 207 206 210 212 210 209 213 217 219 224 232 235 230 226 225 223 223 225 224 222 224 223 219 215 211 203 208 225 231 246 248 245 247 244 236 222 219 226 232 235 236 239 242 245 248 246 238 230 227 227 228 228
297 297 297 299 298 293 286 283 275 267 264 252 235 219 212 212 229 234 232 230 218 218 247 253 239 227 228 233 232 230 232 236 224 210 210 216 214 211 211 214 214 216 219 218 218 218 224 232 227 223 220 215 216 222 222 222 223 222 220 217 217 215 212 225 221 214 249 254 244 237 229 213 216 227 231 234 240 244 245 247 249 248 242 234 229 225 226 227
299 297 299 299 292 287 286 281 271 264 257 246 230 216 214 218 219 211 219 225 223 237 251 260 265 255 241 231 229 232 234 235 231 219 215 217 218 216 215 215 215 216 219 220 221 219 221 230 228 220 215 212 214 219 222 224 224 223 222 219 219 221 223 235 246 233 245 274 235 223 222 228 239 248 249 245 244 243 242 243 242 241 238 232 226 225 227 227
302 300 301 298 286 282 281 274 268 263 252 241 228 222 223 223 218 209 197 196 221 251 256 259 265 264 256 241 230 239 245 239 238 230 221 220 222 222 221 221 219 217 217 218 219 217 219 232 234 225 218 216 214 216 218 221 222 219 217 218 220 224 227 232 243 241 240 252 241 231 229 232 238 246 246 245 247 245 241 239 236 235 233 226 223 225 229 230
302 301 300 292 281 276 275 268 262 256 248 239 231 230 233 231 224 217 209 210 231 275 288 281 269 266 277 260 234 225 233 243 239 232 227 225 226 227 225 226 226 223 220 220 223 223 223 237 240 231 226 221 214 216 221 223 224 220 215 217 219 222 227 229 234 235 226 235 245 237 236 237 233 234 235 236 242 244 243 240 236 233 228 222 220 224 229 231
304 303 302 294 282 270 265 259 251 248 243 238 237 236 238 237 233 228 223 225 238 262 287 293 287 282 288 285 262 244 248 276 243 228 235 234 230 233 231 227 229 229 227 224 225 228 231 242 246 237 233 228 217 218 224 225 227 228 224 220 214 212 215 217 219 223 217 226 253 232 235 240 238 236 235 233 233 236 238 237 234 232 227 219 217 220 225 228
307 306 306 296 278 259 252 248 242 241 239 237 238 240 241 243 243 240 235 234 241 257 277 284 277 276 274 279 280 270 273 288 270 255 262 247 236 240 237 231 229 228 229 227 225 227 229 237 246 238 234 232 222 220 221 221 222 225 229 224 217 219 221 216 218 222 210 214 240 232 231 238 240 240 240 240 238 233 233 235 235 234 228 220 217 218 221 224
309 307 309 290 266 252 243 240 236 234 235 238 241 244 246 248 247 245 243 242 242 250 262 266 263 270 274 277 281 277 281 287 278 274 277 259 247 247 240 236 234 229 228 228 228 230 227 231 246 240 232 231 227 222 218 217 216 217 220 220 215 219 223 221 224 224 220 206 182 209 243 239 239 240 237 239 243 240 239 243 244 241 232 223 221 222 221 222
310 306 312 281 258 249 237 231 227 226 230 238 245 248 252 258 259 258 255 249 246 246 251 264 274 278 281 284 284 281 283 285 278 275 274 258 245 251 238 228 229 231 229 223 222 226 226 228 238 238 233 232 231 228 223 220 218 215 216 218 217 216 212 212 222 221 221 225 213 207 250 248 243 241 236 236 240 242 245 249 253 251 237 226 224 225 223 224
311 307 309 258 251 247 235 225 217 218 225 231 239 246 253 261 264 268 266 255 256 252 250 264 275 277 281 278 275 276 276 275 272 270 272 259 238 250 261 237 217 218 224 223 223 227 229 229 231 234 235 235 233 232 230 227 224 221 219 219 220 221 216 211 213 216 219 226 226 221 244 252 247 242 237 235 238 244 247 247 251 253 239 229 226 224 221 224
315 315 309 242 250 248 238 231 220 218 225 226 229 236 242 249 260 271 269 261 261 256 252 264 267 264 268 263 263 272 273 272 272 262 262 260 248 253 265 257 231 214 218 230 231 227 225 225 225 230 236 238 236 233 232 233 227 221 219 219 219 220 221 222 225 226 227 228 222 213 240 247 244 242 238 233 235 240 245 249 256 255 239 230 228 224 219 220
318 322 310 221 256 255 237 240 237 231 232 233 236 237 235 241 258 267 261 255 255 254 256 263 258 256 272 270 266 277 280 275 275 261 254 254 248 246 250 251 247 237 225 238 239 221 222 222 218 219 232 236 237 238 235 233 227 219 216 217 218 219 221 226 228 229 235 235 225 217 238 246 243 246 246 240 236 237 243 258 268 261 245 235 231 225 219 217
320 323 305 241 269 265 219 229 269 248 242 247 251 248 243 244 248 250 253 254 251 252 261 264 261 266 282 283 272 273 276 272 277 275 262 255 249 244 245 249 255 258 246 237 225 214 228 228 217 209 211 215 220 229 230 228 226 223 218 216 217 217 218 222 225 225 232 237 232 230 240 246 242 246 248 247 245 244 248 257 261 263 257 242 232 225 217 214
318 321 316 301 288 246 208 207 245 242 249 273 270 261 260 258 249 242 248 259 255 256 264 266 270 273 276 284 284 278 270 263 271 283 277 269 261 253 252 257 263 264 253 245 238 232 248 245 223 217 218 220 222 225 226 227 224 222 220 217 215 216 218 220 220 223 227 230 236 239 241 241 236 239 242 244 248 252 254 254 251 255 267 249 233 224 216 216
311 314 320 321 314 252 209 213 235 251 276 306 299 283 275 274 263 247 245 255 260 263 268 269 272 277 278 285 290 285 276 267 264 274 279 277 270 263 261 265 272 271 261 260 263 254 260 259 238 230 226 224 228 231 229 229 229 223 221 219 215 214 216 218 218 224 226 223 234 240 241 242 240 239 238 235 244 254 255 255 250 248 259 258 237 225 221 225
306 306 315 315 304 297 276 256 268 282 293 309 309 300 291 289 288 268 255 256 257 261 276 281 279 284 285 285 287 286 284 279 272 270 275 277 275 271 266 263 267 272 269 269 272 284 283 260 248 260 247 229 227 231 231 230 231 228 221 219 218 214 214 217 220 225 227 227 235 240 240 243 245 245 243 239 244 252 250 252 254 250 251 250 232 223 225 230
305 302 307 304 294 299 303 298 300 299 298 306 306 298 294 293 296 290 276 271 265 261 276 294 292 297 297 290 288 288 289 289 284 278 279 283 283 281 278 273 267 264 271 276 266 303 316 273 257 298 284 238 225 225 228 230 230 227 219 218 218 215 214 217 221 225 228 233 240 243 244 245 245 245 246 243 244 247 246 247 251 255 257 246 228 222 227 232
306 301 302 303 297 298 303 307 312 305 296 302 307 302 298 295 290 285 277 277 278 271 268 277 283 291 298 296 293 292 292 295 293 286 284 287 285 284 287 284 273 265 272 289 281 303 321 300 295 321 308 258 228 221 221 227 230 227 222 221 221 216 214 215 219 223 227 233 239 241 243 245 245 245 246 243 241 242 246 249 249 254 262 246 223 217 220 223
301 297 298 299 296 297 305 309 309 303 297 303 309 305 298 288 284 287 280 269 271 272 268 269 272 274 280 284 286 289 292 293 291 286 285 285 281 280 282 283 281 280 283 296 304 305 320 315 317 333 326 285 235 222 218 220 227 228 224 223 221 218 216 216 217 220 222 228 234 236 239 244 246 245 245 244 245 246 248 251 253 257 263 246 224 218 220 219
296 293 291 291 290 293 302 304 301 301 303 309 310 302 294 287 282 294 293 278 264 260 259 263 271 275 276 276 276 285 293 292 287 285 284 282 278 277 276 275 282 288 290 302 309 306 323 318 313 329 324 289 254 231 219 215 220 227 225 222 217 213 217 222 223 223 222 224 230 234 239 243 244 244 244 244 247 250 251 251 255 261 263 254 240 236 236 232
Height
3168 3167 3167 3166 3165 3165 3164 3164 3164 3163 3163 3163 3162 3162 3161 3160 3160 3159 3159 3158 3158 3157 3157 3156 3155 3155 3154 3154 3154 3154 3154 3154 3153 3152 3152 3153 3153 3153 3155 3157 3159 3161 3163 3165 3167 3169 3171 3173 3175 3176 3177 3177 3178 3178 3179 3178 3178 3177 3177 3176 3175 3176 3177 3177 3177 3177 3176 3177 3178 3179 3177 3175 3177 3179 3179 3180 3181 3181 3181 3181 3183 3183 3184 3185 3186 3187 3186 3187
3166 3165 3165 3164 3163 3163 3162 3162 3161 3161 3161 3161 3160 3160 3159 3159 3158 3158 3157 3157 3156 3156 3155 3155 3154 3153 3152 3153 3152 3152 3152 3152 3151 3150 3150 3151 3151 3152 3153 3154 3156 3158 3160 3162 3165 3168 3170 3172 3174 3175 3175 3176 3178 3178 3178 3177 3177 3176 3176 3176 3175 3176 3177 3177 3177 3177 3177 3177 3178 3178 3177 3176 3176 3177 3179 3180 3180 3181 3180 3181 3182 3182 3183 3184 3186 3187 3187 3187
3164 3163 3163 3162 3161 3161 3160 3159 3159 3159 3158 3158 3158 3158 3158 3157 3157 3156 3155 3155 3154 3154 3154 3153 3153 3152 3151 3151 3151 3151 3151 3150 3150 3149 3148 3149 3149 3150 3151 3152 3153 3156 3159 3161 3164 3167 3169 3172 3172 3173 3174 3175 3176 3177 3177 3177 3176 3176 3176 3175 3175 3175 3176 3176 3177 3177 3177 3177 3178 3178 3176 3177 3177 3177 3179 3179 3180 3180 3180 3180 3181 3182 3183 3183 3184 3186 3187 3187
3163 3162 3161 3160 3159 3158 3158 3157 3157 3156 3156 3156 3156 3155 3155 3155 3155 3154 3154 3153 3152 3152 3152 3152 3151 3150 3150 3150 3150 3149 3149 3149 3148 3148 3147 3147 3148 3148 3149 3151 3153 3155 3157 3160 3162 3165 3167 3169 3170 3171 3172 3173 3175 3175 3175 3175 3175 3175 3175 3174 3174 3175 3175 3175 3176 3177 3177 3177 3178 3178 3176 3176 3177 3177 3178 3179 3179 3179 3180 3180 3181 3182 3182 3183 3184 3185 3186 3187
3161 3160 3159 3158 3157 3156 3156 3155 3154 3154 3153 3153 3153 3153 3153 3152 3152 3152 3152 3151 3150 3150 3150 3150 3150 3149 3148 3149 3149 3148 3148 3147 3147 3147 3147 3147 3147 3147 3148 3150 3152 3154 3156 3157 3159 3162 3164 3166 3167 3169 3170 3171 3173 3172 3172 3173 3174 3174 3173 3173 3174 3175 3174 3175 3176 3177 3177 3177 3177 3177 3176 3176 3176 3176 3177 3178 3177 3177 3179 3180 3181 3181 3182 3183 3184 3185 3186 3186
3159 3158 3157 3156 3156 3155 3154 3153 3152 3152 3151 3151 3151 3150 3150 3150 3150 3150 3149 3149 3148 3148 3148 3148 3148 3147 3147 3147 3147 3147 3147 3147 3146 3147 3147 3147 3147 3147 3148 3149 3151 3153 3154 3155 3157 3159 3161 3163 3164 3166 3168 3170 3170 3170 3170 3172 3173 3172 3171 3171 3172 3173 3175 3175 3175 3176 3176 3176 3177 3177 3177 3176 3175 3174 3175 3176 3175 3176 3178 3180 3181 3181 3182 3183 3184 3185 3186 3186
3158 3157 3155 3155 3154 3153 3152 3151 3150 3150 3149 3149 3148 3148 3148 3147 3147 3147 3147 3147 3146 3145 3146 3146 3145 3145 3145 3145 3146 3145 3145 3145 3145 3145 3146 3147 3147 3148 3148 3149 3150 3151 3152 3153 3155 3157 3159 3161 3161 3164 3166 3168 3168 3168 3170 3171 3171 3170 3169 3169 3170 3172 3174 3174 3175 3175 3175 3176 3176 3176 3177 3177 3175 3174 3175 3174 3174 3176 3178 3179 3181 3182 3182 3182 3183 3185 3186 3187
3156 3154 3153 3153 3152 3151 3150 3149 3148 3148 3147 3147 3146 3146 3145 3145 3145 3145 3144 3144 3143 3143 3143 3144 3143 3143 3143 3143 3143 3144 3144 3143 3142 3143 3144 3145 3146 3147 3147 3148 3149 3149 3150 3151 3153 3155 3157 3158 3160 3163 3164 3165 3168 3168 3169 3170 3169 3168 3167 3168 3170 3171 3173 3174 3174 3175 3175 3175 3175 3175 3176 3177 3176 3175 3175 3174 3175 3176 3177 3179 3180 3182 3182 3182 3183 3185 3186 3187
3154 3153 3152 3151 3150 3149 3148 3147 3147 3146 3145 3144 3144 3143 3143 3142 3142 3142 3142 3142 3141 3140 3140 3141 3141 3140 3141 3140 3141 3142 3142 3141 3141 3141 3142 3143 3144 3145 3145 3146 3146 3147 3148 3150 3152 3153 3155 3156 3159 3161 3162 3165 3167 3167 3168 3168 3166 3166 3167 3168 3170 3170 3172 3173 3173 3174 3174 3173 3173 3174 3176 3177 3176 3176 3175 3174 3175 3176 3177 3178 3180 3181 3182 3182 3183 3184 3185 3186
3152 3151 3150 3149 3148 3147 3146 3146 3145 3144 3143 3143 3142 3141 3140 3140 3140 3139 3139 3139 3139 3138 3138 3138 3138 3138 3138 3138 3138 3140 3140 3140 3140 3140 3140 3141 3142 3142 3143 3143 3144 3145 3146 3148 3149 3150 3152 3155 3158 3161 3162 3164 3165 3165 3166 3165 3165 3166 3168 3168 3168 3168 3171 3172 3171 3172 3173 3173 3171 3172 3174 3175 3175 3175 3174 3174 3175 3176 3177 3178 3180 3181 3182 3182 3183 3184 3185 3186
3151 3150 3149 3148 3146 3145 3145 3144 3143 3142 3141 3141 3140 3139 3138 3137 3137 3137 3137 3137 3136 3135 3135 3136 3135 3135 3135 3136 3136 3137 3137 3138 3139 3138 3139 3139 3140 3140 3140 3141 3142 3144 3145 3146 3147 3149 3151 3155 3159 3160 3160 3161 3162 3163 3163 3163 3165 3167 3168 3167 3166 3166 3168 3170 3170 3169 3171 3172 3171 3171 3173 3174 3174 3172 3172 3174 3176 3177 3178 3179 3180 3181 3181 3182 3182 3183 3184 3185
3148 3147 3147 3146 3144 3144 3142 3141 3141 3140 3140 3139 3138 3137 3136 3135 3134 3134 3134 3134 3133 3132 3133 3133 3133 3132 3132 3132 3133 3135 3134 3135 3137 3136 3137 3138 3138 3138 3138 3139 3141 3142 3144 3145 3146 3149 3151 3154 3157 3157 3157 3159 3160 3161 3161 3162 3164 3165 3166 3165 3165 3164 3164 3166 3167 3167 3168 3169 3170 3171 3172 3172 3171 3170 3170 3172 3175 3176 3177 3178 3179 3180 3180 3181 3182 3183 3184 3184
3146 3145 3144 3143 3142 3141 3140 3139 3138 3138 3138 3137 3136 3135 3134 3133 3132 3131 3131 3131 3130 3130 3130 3130 3130 3130 3130 3130 3131 3133 3133 3133 3134 3133 3133 3135 3136 3136 3137 3138 3140 3142 3143 3144 3146 3148 3151 3153 3154 3155 3157 3158 3157 3158 3158 3160 3162 3162 3164 3163 3163 3163 3161 3162 3164 3165 3166 3167 3169 3170 3169 3170 3169 3169 3168 3170 3172 3174 3175 3176 3177 3178 3179 3180 3181 3182 3183 3184
3143 3142 3141 3141 3140 3139 3138 3137 3136 3136 3135 3134 3134 3133 3132 3131 3129 3129 3128 3128 3128 3128 3128 3127 3127 3127 3127 3128 3130 3130 3130 3130 3129 3129 3130 3132 3134 3134 3135 3136 3137 3140 3142 3143 3145 3148 3150 3152 3154 3155 3156 3155 3155 3157 3156 3157 3159 3159 3160 3160 3160 3160 3158 3160 3162 3163 3164 3165 3167 3167 3166 3167 3168 3168 3168 3168 3169 3171 3173 3175 3176 3177 3178 3179 3180 3181 3182 3183
3141 3140 3139 3138 3137 3136 3135 3134 3133 3133 3133 3132 3131 3130 3129 3127 3127 3126 3126 3125 3126 3126 3126 3125 3124 3124 3125 3127 3128 3127 3126 3126 3127 3129 3130 3129 3131 3132 3133 3135 3136 3138 3141 3143 3144 3146 3149 3151 3152 3152 3153 3154 3155 3155 3154 3155 3156 3157 3157 3157 3157 3158 3157 3158 3159 3160 3162 3163 3165 3164 3164 3165 3166 3166 3168 3168 3168 3169 3171 3173 3174 3175 3177 3178 3179 3180 3181 3182
3139 3138 3137 3136 3135 3134 3132 3131 3131 3131 3131 3130 3129 3128 3126 3124 3124 3124 3123 3123 3123 3123 3123 3122 3122 3122 3122 3124 3125 3124 3124 3125 3127 3128 3128 3127 3128 3130 3132 3133 3134 3136 3139 3141 3143 3144 3146 3148 3148 3149 3150 3152 3152 3152 3153 3153 3153 3153 3154 3153 3154 3155 3155 3156 3156 3157 3160 3162 3162 3161 3161 3163 3164 3164 3166 3167 3167 3169 3170 3171 3172 3174 3176 3177 3179 3179 3180 3181
3137 3135 3135 3133 3132 3131 3130 3129 3128 3128 3129 3127 3126 3126 3123 3121 3122 3122 3121 3121 3120 3120 3120 3119 3120 3119 3120 3121 3122 3122 3123 3123 3124 3125 3126 3126 3127 3129 3131 3131 3133 3135 3138 3140 3141 3142 3143 3144 3144 3145 3146 3147 3148 3151 3151 3149 3148 3149 3151 3151 3150 3152 3152 3153 3154 3155 3157 3159 3159 3159 3159 3161 3161 3161 3163 3165 3166 3167 3169 3170 3171 3172 3174 3176 3178 3179 3179 3179
3133 3133 3132 3131 3130 3129 3127 3127 3126 3126 3126 3124 3122 3123 3121 3119 3119 3118 3117 3117 3117 3117 3116 3116 3117 3117 3117 3118 3118 3120 3120 3120 3120 3122 3124 3125 3126 3128 3130 3131 3132 3134 3137 3138 3138 3139 3140 3141 3142 3143 3143 3143 3144 3146 3145 3143 3145 3147 3148 3149 3149 3150 3150 3150 3152 3153 3154 3155 3156 3157 3158 3159 3159 3159 3160 3162 3164 3165 3166 3168 3170 3171 3172 3174 3176 3177 3178 3178
3129 3129 3129 3128 3127 3126 3125 3124 3123 3123 3123 3122 3119 3118 3118 3116 3115 3115 3113 3113 3113 3113 3114 3113 3113 3114 3115 3116 3117 3117 3117 3117 3117 3118 3121 3123 3125 3126 3128 3130 3131 3133 3134 3134 3135 3136 3138 3138 3138 3137 3136 3138 3140 3141 3141 3143 3146 3147 3148 3149 3148 3148 3148 3149 3151 3152 3152 3153 3154 3154 3155 3157 3158 3157 3157 3159 3161 3163 3165 3166 3168 3169 3170 3172 3174 3175 3176 3177
3125 3125 3125 3125 3124 3123 3121 3121 3120 3120 3120 3119 3117 3116 3114 3113 3112 3110 3109 3109 3110 3110 3110 3110 3109 3110 3112 3115 3116 3115 3115 3115 3116 3116 3118 3121 3123 3124 3126 3127 3129 3130 3130 3131 3132 3134 3136 3135 3132 3131 3133 3136 3139 3141 3143 3145 3147 3147 3147 3148 3147 3147 3147 3147 3150 3151 3151 3150 3151 3151 3153 3154 3155 3155 3155 3157 3159 3161 3163 3164 3165 3167 3168 3170 3172 3173 3175 3176
3122 3122 3121 3121 3121 3120 3118 3117 3117 3117 3116 3115 3115 3114 3113 3111 3109 3106 3103 3104 3108 3107 3106 3107 3106 3105 3108 3113 3114 3113 3113 3112 3113 3114 3114 3117 3121 3121 3122 3124 3125 3126 3126 3129 3131 3132 3133 3128 3126 3129 3134 3137 3139 3141 3143 3144 3145 3145 3145 3145 3145 3145 3144 3145 3148 3150 3151 3149 3149 3150 3152 3152 3153 3154 3154 3155 3157 3158 3160 3161 3163 3164 3165 3167 3169 3171 3173 3174
3119 3118 3118 3118 3118 3117 3116 3114 3114 3114 3113 3112 3111 3112 3111 3109 3107 3104 3100 3098 3101 3104 3103 3104 3103 3101 3104 3109 3110 3110 3109 3108 3110 3112 3112 3113 3116 3118 3119 3121 3121 3122 3124 3127 3128 3129 3127 3122 3124 3130 3134 3137 3138 3140 3142 3143 3144 3144 3143 3143 3142 3141 3142 3144 3146 3149 3151 3150 3148 3149 3149 3149 3150 3151 3152 3152 3153 3155 3156 3158 3159 3161 3163 3165 3167 3169 3171 3172
3115 3114 3114 3114 3114 3114 3113 3111 3111 3110 3110 3109 3109 3109 3108 3107 3104 3102 3099 3094 3094 3099 3100 3101 3100 3098 3101 3104 3106 3105 3103 3104 3106 3108 3109 3109 3111 3114 3116 3117 3118 3120 3122 3123 3123 3124 3121 3119 3125 3131 3133 3135 3136 3138 3140 3141 3142 3141 3140 3141 3139 3138 3142 3144 3144 3147 3149 3148 3146 3146 3147 3148 3149 3150 3150 3150 3151 3153 3154 3156 3157 3159 3160 3162 3164 3166 3168 3170
3112 3111 3110 3110 3111 3111 3110 3109 3108 3107 3106 3106 3106 3107 3106 3105 3102 3099 3098 3093 3089 3091 3096 3097 3094 3094 3098 3100 3100 3099 3099 3102 3103 3104 3106 3105 3108 3111 3113 3114 3116 3117 3119 3120 3121 3121 3119 3120 3126 3130 3131 3133 3134 3135 3137 3138 3138 3138 3138 3138 3135 3136 3141 3143 3142 3145 3147 3147 3146 3146 3148 3148 3149 3150 3150 3150 3151 3151 3152 3154 3155 3156 3157 3159 3161 3163 3165 3166
3109 3108 3106 3106 3106 3108 3108 3105 3105 3104 3103 3103 3104 3104 3103 3102 3100 3096 3095 3092 3086 3086 3091 3092 3089 3090 3093 3094 3093 3095 3097 3098 3098 3101 3103 3103 3105 3108 3110 3112 3113 3114 3116 3118 3120 3119 3118 3121 3126 3127 3128 3130 3131 3131 3133 3134 3136 3136 3135 3135 3134 3134 3139 3141 3141 3144 3145 3145 3145 3147 3148 3148 3148 3148 3148 3149 3150 3150 3150 3151 3152 3153 3155 3156 3158 3160 3162 3164
3107 3105 3103 3102 3101 3104 3105 3103 3102 3101 3100 3101 3101 3101 3101 3099 3098 3097 3095 3092 3084 3082 3086 3086 3085 3086 3086 3088 3089 3092 3093 3091 3094 3099 3100 3101 3103 3105 3107 3109 3109 3111 3114 3117 3119 3115 3115 3120 3123 3124 3125 3127 3127 3128 3130 3132 3134 3131 3130 3134 3135 3134 3137 3138 3139 3142 3144 3143 3144 3144 3144 3144 3145 3145 3145 3146 3147 3147 3148 3148 3149 3151 3152 3153 3154 3156 3158 3160
3104 3103 3101 3099 3097 3098 3102 3101 3099 3097 3097 3098 3098 3099 3099 3097 3097 3097 3096 3094 3085 3081 3083 3082 3082 3082 3082 3084 3086 3087 3088 3088 3092 3095 3094 3097 3100 3102 3104 3105 3106 3108 3112 3116 3115 3109 3111 3117 3119 3120 3122 3123 3123 3123 3126 3130 3130 3126 3128 3135 3136 3135 3135 3136 3137 3139 3141 3142 3142 3141 3140 3139 3140 3140 3142 3143 3144 3145 3146 3146 3146 3147 3148 3149 3150 3152 3155 3157
3101 3099 3098 3098 3095 3093 3097 3097 3095 3094 3094 3095 3095 3096 3096 3095 3096 3096 3098 3096 3086 3079 3080 3080 3081 3081 3081 3082 3082 3084 3086 3087 3089 3089 3090 3095 3097 3099 3101 3102 3103 3106 3109 3111 3107 3104 3109 3113 3114 3117 3119 3119 3118 3120 3124 3127 3126 3124 3130 3134 3135 3135 3135 3135 3136 3136 3138 3140 3138 3138 3140 3138 3134 3135 3138 3140 3140 3141 3141 3142 3142 3143 3144 3145 3146 3148 3151 3153
3098 3096 3095 3096 3094 3091 3093 3092 3090 3091 3092 3091 3092 3093 3092 3094 3094 3095 3099 3095 3082 3078 3079 3079 3080 3080 3080 3080 3081 3083 3084 3086 3087 3087 3089 3092 3094 3096 3097 3099 3103 3105 3107 3107 3104 3104 3108 3110 3112 3115 3115 3114 3116 3120 3123 3125 3124 3125 3130 3132 3133 3134 3134 3134 3134 3133 3135 3135 3131 3132 3137 3135 3131 3131 3134 3135 3135 3136 3137 3138 3138 3139 3140 3142 3143 3145 3147 3150
3095 3094 3091 3091 3092 3091 3090 3088 3084 3087 3089 3088 3088 3089 3090 3092 3093 3095 3096 3088 3078 3077 3078 3078 3079 3078 3078 3079 3080 3081 3082 3084 3086 3086 3087 3089 3091 3094 3095 3099 3103 3104 3105 3105 3103 3103 3106 3109 3111 3112 3111 3112 3116 3119 3121 3122 3124 3126 3128 3130 3132 3132 3132 3132 3131 3132 3132 3127 3124 3127 3131 3132 3129 3127 3128 3128 3129 3131 3133 3134 3135 3137 3138 3138 3139 3141 3143 3146
3091 3091 3089 3087 3087 3088 3089 3086 3081 3081 3085 3084 3085 3087 3088 3089 3091 3091 3087 3079 3076 3076 3076 3078 3079 3077 3077 3078 3079 3079 3080 3082 3084 3084 3085 3086 3089 3091 3092 3095 3099 3101 3103 3102 3100 3101 3104 3106 3107 3107 3109 3112 3115 3116 3117 3120 3122 3124 3125 3128 3129 3128 3129 3128 3126 3128 3126 3119 3118 3122 3126 3127 3123 3121 3123 3124 3124 3127 3128 3130 3132 3133 3134 3134 3135 3137 3139 3141
3087 3087 3087 3084 3082 3083 3084 3083 3079 3078 3079 3081 3082 3084 3085 3087 3085 3079 3075 3075 3076 3074 3073 3075 3076 3075 3076 3076 3077 3077 3078 3079 3081 3082 3082 3082 3083 3084 3084 3085 3088 3093 3094 3093 3095 3097 3099 3100 3102 3104 3106 3108 3110 3111 3114 3116 3118 3120 3121 3124 3125 3124 3126 3124 3120 3119 3116 3113 3115 3119 3122 3119 3114 3115 3120 3121 3122 3125 3126 3127 3128 3129 3129 3130 3131 3133 3135 3137
3082 3083 3084 3082 3079 3077 3078 3078 3076 3074 3075 3077 3079 3080 3082 3083 3075 3068 3070 3075 3074 3071 3070 3071 3069 3070 3072 3072 3074 3076 3076 3077 3078 3080 3080 3081 3080 3079 3081 3082 3083 3085 3085 3087 3092 3095 3096 3097 3099 3101 3101 3102 3104 3105 3107 3109 3111 3113 3115 3117 3117 3118 3120 3118 3114 3114 3112 3111 3113 3117 3118 3113 3109 3111 3116 3118 3120 3122 3123 3124 3125 3125 3126 3127 3128 3129 3132 3134
3078 3078 3079 3079 3075 3071 3071 3073 3071 3070 3072 3074 3075 3077 3078 3074 3067 3065 3069 3072 3072 3069 3068 3066 3065 3066 3068 3069 3071 3073 3074 3075 3076 3077 3077 3078 3078 3077 3078 3081 3082 3083 3084 3087 3089 3090 3091 3090 3089 3092 3093 3095 3098 3098 3101 3105 3107 3108 3110 3113 3112 3110 3112 3112 3112 3113 3111 3110 3111 3114 3112 3107 3106 3107 3110 3115 3117 3118 3119 3120 3121 3122 3123 3125 3126 3128 3130 3131
3073 3074 3074 3074 3070 3066 3066 3069 3067 3067 3068 3069 3071 3072 3068 3063 3063 3066 3068 3069 3069 3066 3062 3062 3063 3064 3064 3066 3068 3070 3072 3073 3074 3075 3074 3073 3073 3072 3074 3075 3078 3081 3083 3085 3084 3086 3086 3081 3081 3086 3088 3090 3093 3095 3099 3103 3103 3105 3108 3108 3105 3106 3110 3111 3110 3109 3109 3109 3107 3107 3104 3101 3104 3105 3107 3111 3112 3113 3115 3115 3116 3118 3120 3124 3125 3126 3128 3128
3066 3069 3071 3069 3065 3063 3062 3063 3063 3064 3064 3065 3066 3063 3058 3058 3062 3065 3065 3065 3065 3062 3059 3060 3062 3062 3062 3063 3066 3068 3070 3071 3072 3072 3070 3070 3069 3069 3071 3072 3075 3077 3078 3079 3080 3081 3081 3077 3078 3085 3087 3087 3090 3092 3096 3097 3097 3100 3102 3099 3100 3106 3110 3109 3108 3107 3109 3107 3101 3100 3099 3099 3102 3102 3104 3107 3108 3109 3110 3111 3113 3115 3117 3120 3121 3122 3124 3125
3059 3063 3066 3064 3061 3060 3059 3059 3060 3060 3060 3061 3059 3055 3053 3056 3059 3061 3062 3062 3062 3063 3062 3061 3061 3060 3061 3061 3062 3064 3065 3066 3068 3068 3066 3067 3065 3064 3067 3069 3071 3073 3074 3077 3078 3078 3079 3076 3076 3082 3082 3083 3088 3090 3092 3093 3094 3095 3094 3096 3102 3106 3107 3108 3107 3106 3106 3103 3097 3095 3096 3097 3098 3098 3100 3103 3104 3105 3107 3108 3110 3112 3114 3116 3117 3119 3120 3121
3053 3056 3060 3059 3058 3057 3055 3055 3055 3055 3056 3055 3052 3050 3051 3053 3055 3058 3061 3062 3061 3061 3062 3061 3060 3059 3060 3060 3058 3059 3061 3061 3062 3064 3064 3062 3059 3059 3063 3066 3068 3070 3073 3076 3076 3077 3078 3075 3074 3077 3078 3080 3085 3087 3087 3088 3091 3092 3092 3096 3100 3099 3099 3101 3102 3100 3100 3100 3096 3092 3093 3093 3093 3093 3096 3099 3100 3102 3104 3106 3107 3109 3111 3113 3114 3116 3117 3118
3047 3050 3055 3055 3054 3053 3051 3050 3051 3051 3051 3048 3046 3048 3049 3050 3053 3057 3059 3059 3059 3058 3058 3059 3059 3057 3057 3058 3056 3055 3057 3058 3058 3059 3059 3058 3056 3056 3060 3063 3065 3067 3071 3074 3073 3074 3076 3074 3071 3073 3076 3079 3080 3080 3079 3081 3085 3089 3091 3093 3093 3092 3092 3094 3093 3092 3094 3096 3094 3093 3091 3087 3086 3089 3094 3096 3098 3100 3101 3102 3103 3105 3107 3110 3111 3113 3114 3115
3043 3045 3051 3051 3048 3047 3047 3047 3047 3047 3045 3043 3044 3046 3047 3049 3051 3053 3055 3056 3056 3056 3055 3056 3058 3056 3053 3054 3054 3053 3053 3055 3055 3055 3055 3055 3054 3056 3060 3063 3063 3065 3068 3070 3069 3070 3073 3071 3068 3071 3074 3073 3071 3070 3072 3075 3079 3081 3082 3084 3086 3087 3088 3089 3089 3088 3091 3092 3092 3093 3087 3080 3081 3087 3091 3093 3096 3098 3099 3099 3099 3101 3103 3106 3108 3110 3112 3113
3041 3041 3047 3047 3041 3040 3043 3044 3044 3043 3041 3041 3044 3045 3046 3047 3049 3050 3053 3054 3054 3054 3053 3053 3055 3055 3053 3051 3052 3052 3051 3049 3051 3051 3051 3051 3053 3056 3060 3061 3062 3063 3064 3063 3063 3065 3067 3067 3066 3066 3067 3064 3064 3067 3070 3071 3074 3075 3075 3076 3080 3083 3084 3085 3084 3084 3087 3087 3087 3088 3082 3073 3076 3084 3088 3091 3093 3095 3096 3097 3097 3099 3100 3103 3105 3107 3108 3110
3038 3038 3042 3042 3036 3035 3039 3041 3041 3040 3040 3040 3042 3043 3044 3046 3046 3048 3049 3050 3051 3050 3051 3051 3051 3052 3052 3049 3048 3049 3047 3044 3045 3047 3046 3048 3051 3052 3051 3051 3052 3056 3057 3056 3056 3059 3062 3063 3061 3060 3060 3060 3062 3066 3068 3069 3071 3072 3073 3074 3078 3080 3080 3080 3081 3082 3085 3083 3082 3085 3078 3068 3074 3082 3086 3089 3090 3092 3094 3095 3095 3096 3097 3100 3102 3103 3105 3106
3036 3035 3037 3036 3032 3032 3035 3036 3038 3038 3038 3038 3040 3040 3042 3043 3045 3046 3046 3046 3046 3046 3047 3048 3047 3048 3048 3045 3043 3043 3043 3040 3040 3041 3042 3043 3045 3046 3045 3046 3047 3048 3050 3051 3053 3056 3058 3056 3054 3055 3057 3058 3060 3062 3064 3065 3067 3066 3067 3070 3074 3074 3075 3077 3078 3080 3080 3077 3079 3083 3072 3064 3073 3081 3084 3087 3088 3088 3090 3091 3093 3094 3094 3096 3098 3099 3102 3103
3034 3033 3034 3033 3030 3030 3031 3033 3035 3034 3034 3035 3035 3036 3037 3040 3041 3041 3040 3041 3041 3042 3042 3042 3042 3043 3041 3040 3040 3040 3040 3039 3036 3036 3037 3037 3036 3038 3040 3042 3043 3043 3045 3047 3049 3051 3050 3048 3048 3052 3054 3054 3054 3055 3055 3057 3060 3059 3060 3064 3066 3069 3072 3074 3075 3077 3075 3072 3076 3076 3065 3063 3074 3079 3081 3085 3085 3085 3087 3088 3090 3091 3091 3093 3094 3095 3098 3100
3033 3031 3031 3030 3029 3028 3029 3031 3030 3030 3030 3030 3029 3030 3032 3033 3035 3035 3035 3036 3038 3039 3039 3038 3038 3039 3037 3036 3037 3037 3037 3037 3034 3032 3032 3031 3029 3033 3036 3036 3037 3039 3041 3043 3044 3044 3041 3040 3041 3042 3042 3043 3043 3042 3043 3048 3053 3054 3055 3057 3060 3064 3067 3069 3071 3072 3068 3068 3072 3070 3063 3066 3074 3076 3078 3081 3081 3081 3084 3085 3087 3088 3088 3089 3089 3091 3095 3097
3032 3030 3027 3026 3026 3026 3027 3028 3027 3027 3027 3027 3026 3028 3029 3029 3030 3031 3032 3034 3035 3036 3035 3034 3035 3035 3034 3033 3033 3033 3033 3034 3033 3030 3029 3027 3026 3028 3030 3032 3033 3035 3037 3039 3041 3041 3037 3035 3034 3032 3030 3031 3033 3036 3041 3045 3048 3048 3050 3052 3055 3059 3061 3063 3065 3063 3062 3067 3068 3064 3065 3069 3071 3073 3076 3078 3078 3079 3080 3082 3085 3086 3086 3086 3087 3090 3094 3096
3031 3030 3028 3025 3023 3024 3025 3025 3026 3026 3026 3026 3026 3027 3027 3027 3028 3029 3031 3032 3032 3032 3031 3031 3033 3033 3031 3030 3029 3029 3029 3028 3029 3029 3026 3024 3023 3023 3024 3028 3031 3032 3033 3036 3037 3037 3034 3031 3030 3029 3026 3027 3031 3036 3040 3042 3042 3044 3046 3048 3050 3054 3056 3057 3056 3055 3060 3065 3061 3059 3065 3068 3068 3072 3074 3075 3077 3076 3077 3079 3081 3083 3084 3084 3086 3090 3093 3093
3030 3030 3029 3028 3025 3024 3024 3024 3024 3024 3025 3025 3025 3025 3026 3026 3027 3028 3028 3028 3028 3029 3029 3029 3030 3030 3029 3027 3026 3026 3025 3023 3023 3025 3024 3021 3019 3018 3018 3023 3028 3030 3031 3033 3034 3034 3030 3027 3027 3027 3025 3025 3029 3032 3035 3037 3038 3040 3043 3044 3046 3049 3050 3050 3050 3052 3057 3057 3054 3058 3064 3063 3066 3072 3073 3074 3076 3075 3075 3077 3078 3080 3082 3082 3084 3087 3088 3089
3029 3028 3028 3028 3026 3024 3024 3024 3023 3023 3023 3024 3024 3024 3025 3025 3026 3026 3026 3025 3025 3027 3028 3027 3027 3027 3026 3025 3024 3024 3024 3023 3020 3020 3021 3020 3019 3017 3015 3015 3021 3026 3029 3031 3032 3031 3028 3024 3024 3023 3020 3020 3023 3026 3030 3033 3034 3036 3038 3039 3041 3043 3044 3046 3048 3051 3052 3051 3052 3058 3061 3060 3065 3070 3071 3073 3074 3073 3074 3075 3075 3077 3078 3079 3080 3081 3083 3086
3028 3027 3026 3025 3024 3023 3024 3024 3023 3022 3022 3022 3022 3023 3023 3023 3023 3024 3024 3024 3023 3024 3026 3025 3024 3024 3023 3023 3023 3022 3024 3024 3020 3017 3018 3019 3018 3019 3017 3013 3014 3018 3024 3028 3029 3028 3026 3022 3021 3020 3017 3015 3017 3021 3025 3028 3029 3031 3034 3036 3037 3039 3040 3042 3045 3047 3049 3049 3052 3056 3056 3056 3063 3068 3069 3069 3070 3070 3071 3071 3072 3074 3075 3076 3077 3078 3080 3083
3026 3026 3025 3024 3022 3022 3022 3022 3022 3021 3020 3021 3021 3020 3021 3021 3021 3021 3021 3022 3023 3022 3023 3022 3021 3021 3021 3020 3020 3021 3021 3021 3018 3015 3017 3017 3016 3017 3017 3014 3014 3015 3018 3024 3027 3025 3024 3021 3019 3020 3016 3012 3014 3018 3019 3023 3026 3027 3027 3029 3031 3034 3036 3038 3040 3043 3045 3047 3050 3052 3050 3052 3059 3065 3065 3065 3065 3067 3068 3069 3070 3071 3073 3075 3076 3077 3079 3080
3024 3024 3024 3023 3020 3020 3021 3020 3020 3019 3019 3019 3019 3019 3018 3019 3019 3019 3018 3018 3020 3021 3020 3020 3019 3019 3019 3018 3018 3019 3019 3017 3015 3013 3013 3013 3014 3015 3014 3014 3016 3016 3017 3021 3024 3023 3023 3021 3019 3021 3018 3012 3011 3014 3016 3021 3023 3018 3016 3020 3026 3030 3033 3035 3038 3041 3043 3045 3047 3046 3047 3051 3057 3059 3059 3061 3062 3063 3065 3067 3068 3069 3071 3073 3074 3076 3077 3078